Temperature
8 8 8 8 8 9 9 9 9 9 9 9 9 10 10 9 9 9 10 10 9 9 10 10 10 10 10 10 10 10 9 9 9 9 9 9 9 8 8 8 8 8 8
7 8 8 8 8 8 8 8 8 9 9 9 9 9 9 9 9 9 9 9 9 9 9 9 9 9 9 9 9 9 9 9 9 8 8 8 8 8 8 8 8 8 8
7 7 7 7 7 8 8 8 8 8 8 8 8 8 9 9 9 9 9 9 8 8 8 8 9 8 9 9 9 9 9 8 8 8 7 7 7 7 7 7 8 7 7
6 7 7 7 7 7 7 8 8 8 8 8 8 8 8 8 8 8 8 8 8 8 8 8 8 8 8 8 8 8 8 8 8 7 7 7 6 6 6 7 7 7 7
6 6 6 6 6 7 7 7 7 7 7 7 7 7 7 7 7 7 7 7 7 7 7 7 7 7 7 7 7 7 7 7 7 7 7 6 6 6 5 5 6 6 7
6 6 6 6 6 6 6 6 7 7 7 7 7 7 7 7 7 7 7 7 7 7 7 7 7 7 7 7 7 7 7 7 6 6 6 6 6 5 5 5 5 5 6
5 6 6 5 6 6 6 6 6 6 6 6 6 6 6 6 6 6 6 6 6 6 6 6 6 6 6 6 6 6 6 6 6 6 6 5 5 5 5 5 4 4 4
5 5 5 5 5 5 5 5 5 5 5 5 5 6 6 6 6 6 6 6 6 6 6 6 6 6 6 6 6 6 6 5 5 5 5 5 5 5 4 4 4 3 3
5 5 5 5 5 5 5 5 5 5 5 5 5 5 5 5 5 5 5 5 5 5 5 5 5 5 5 5 5 5 5 5 5 5 5 4 4 4 4 4 3 3 3
4 4 4 4 4 4 4 4 4 4 4 4 4 4 4 5 5 4 5 5 5 5 5 5 5 5 5 5 5 4 4 4 4 4 4 4 4 4 3 3 3 3 2
4 4 4 4 3 3 3 3 3 3 4 4 4 4 4 4 4 4 4 4 4 4 4 4 4 4 4 4 4 4 4 4 4 4 3 3 3 3 3 3 3 2 2
3 3 3 3 3 3 3 3 3 3 3 3 3 3 3 3 3 3 3 3 4 4 4 4 4 4 4 4 3 3 3 3 3 3 3 3 2 2 2 2 2 2 2
3 3 3 3 3 3 3 3 2 2 2 2 2 2 2 2 3 3 3 3 3 3 3 3 3 3 3 3 3 3 3 3 2 2 2 2 2 2 2 2 2 1 1
3 3 3 3 3 2 2 2 2 2 2 2 2 2 2 2 2 2 2 2 2 2 2 2 2 2 2 2 2 2 2 2 2 2 2 2 2 2 1 1 1 1 1
2 2 2 2 2 2 2 2 2 2 1 1 1 1 1 1 1 1 1 1 2 2 2 2 2 2 2 2 1 1 1 1 1 1 1 1 1 1 1 1 0 0 0
2 2 2 2 2 2 2 2 1 1 1 1 1 1 1 1 1 1 1 1 1 1 1 1 1 1 1 1 1 1 1 1 1 1 1 1 1 0 0 0 -0 -0 -0
2 2 2 2 2 2 2 1 1 1 1 0 0 0 0 0 0 0 0 0 0 0 1 1 0 1 1 0 0 0 -0 -0 0 0 0 0 0 -0 -0 -0 -1 -1 -1
2 2 2 2 2 1 1 1 1 0 0 -0 -0 -0 -0 -0 -1 -1 -1 -1 -0 -0 0 0 -0 0 0 -0 -0 -1 -1 -1 -1 -1 -1 -1 -0 -1 -1 -1 -1 -1 -1
2 2 1 1 1 1 0 0 0 -0 -0 -0 -0 -1 -1 -1 -1 -1 -1 -1 -1 -1 -1 -1 -1 -0 -0 -1 -1 -1 -1 -1 -1 -1 -1 -1 -1 -1 -1 -1 -1 -1 -1
1 1 1 1 1 0 0 -0 -0 -0 -1 -1 -1 -1 -1 -1 -1 -2 -2 -2 -2 -1 -1 -1 -1 -1 -1 -1 -1 -2 -2 -2 -2 -2 -2 -2 -2 -2 -2 -2 -2 -2 -2
1 1 1 0 0 -0 -0 -0 -0 -1 -1 -1 -1 -1 -2 -2 -2 -2 -2 -2 -2 -2 -2 -2 -2 -2 -2 -2 -2 -2 -3 -3 -3 -3 -3 -2 -2 -2 -2 -2 -2 -2 -2
1 0 0 -0 -0 -1 -1 -1 -1 -1 -1 -2 -2 -2 -2 -2 -2 -2 -3 -3 -3 -3 -3 -3 -2 -2 -2 -3 -3 -3 -3 -3 -3 -3 -3 -3 -3 -3 -3 -3 -3 -3 -3
0 -0 -0 -1 -1 -1 -1 -1 -1 -2 -2 -2 -2 -2 -3 -3 -3 -3 -3 -3 -3 -3 -3 -3 -3 -3 -3 -3 -3 -3 -3 -4 -4 -4 -4 -4 -4 -4 -3 -3 -3 -3 -3
-0 -1 -1 -1 -1 -1 -2 -2 -2 -2 -2 -2 -3 -3 -3 -3 -3 -3 -3 -4 -4 -4 -4 -4 -4 -4 -4 -4 -4 -4 -4 -4 -4 -4 -4 -4 -4 -4 -4 -4 -4 -4 -4
-1 -1 -1 -1 -1 -2 -2 -2 -2 -2 -3 -3 -3 -3 -3 -3 -3 -4 -4 -4 -4 -4 -4 -4 -5 -5 -4 -4 -4 -5 -5 -5 -5 -5 -5 -5 -5 -5 -5 -5 -4 -4 -4
-1 -2 -2 -2 -2 -2 -2 -2 -3 -3 -3 -3 -3 -3 -4 -4 -4 -4 -4 -4 -4 -4 -4 -5 -5 -5 -5 -5 -5 -5 -5 -5 -5 -5 -5 -5 -5 -5 -5 -5 -5 -5 -5
Wind_Speed
3 2 1 2 2 3 3 2 2 2 2 2 1 2 1 1 1 2 3 3 3 4 4 3 3 3 3 3 3 2 2 1 1 1 1 1 1 0 0 1 0 1 2
2 2 2 2 2 2 2 2 1 2 1 1 1 1 1 1 1 2 3 4 3 3 3 3 2 2 2 3 3 2 2 1 1 1 1 1 2 2 1 1 1 1 2
3 2 1 1 1 2 1 1 1 1 1 2 2 2 2 2 2 1 1 2 3 3 3 3 3 2 2 2 2 3 4 2 1 1 2 2 2 2 2 1 1 1 1
3 2 1 1 1 2 1 1 1 1 1 2 2 2 2 1 1 0 1 2 2 3 3 3 2 2 2 2 2 2 2 3 2 1 0 1 2 1 2 2 2 2 2
3 3 2 2 2 1 0 1 2 2 2 2 2 3 2 1 1 1 2 1 2 2 2 2 2 1 1 1 1 2 2 2 3 2 1 1 1 1 1 2 3 3 2
1 2 1 1 1 1 1 2 2 3 3 2 2 2 2 2 2 2 1 1 0 1 2 1 2 1 1 1 2 2 2 2 2 2 2 2 2 2 2 2 3 3 3
1 1 1 0 0 1 1 2 2 2 2 2 2 1 0 1 1 1 1 0 1 0 1 0 0 1 1 1 1 2 2 2 3 3 2 2 2 1 2 2 2 3 3
1 1 1 1 0 0 1 1 1 1 2 2 1 1 1 1 1 0 1 1 0 1 1 0 0 0 0 1 1 1 2 2 2 2 2 2 2 2 2 2 2 3 3
2 1 1 1 1 0 0 1 1 1 1 1 2 2 2 1 1 1 0 0 0 1 1 0 0 1 0 0 1 2 2 2 2 2 2 2 2 2 2 2 3 3 3
3 2 2 1 1 1 0 1 1 0 1 1 1 1 1 1 1 1 1 1 1 0 1 1 1 1 1 1 1 1 2 2 2 2 2 2 2 2 2 2 3 3 4
2 2 2 2 1 1 1 1 1 1 1 1 1 1 1 1 1 1 1 1 1 1 1 1 1 2 2 2 2 2 2 2 3 2 3 3 2 2 2 2 2 3 3
2 2 2 1 1 1 0 0 0 0 0 1 1 1 1 2 1 1 2 2 1 1 1 1 2 2 2 2 3 3 3 3 4 4 3 4 3 3 3 3 3 3 4
2 1 1 1 1 1 1 1 1 1 0 0 0 1 1 2 2 2 2 2 2 2 1 2 2 3 3 3 3 4 4 4 4 4 4 4 4 4 4 4 4 4 4
2 2 2 2 2 2 1 1 1 1 0 0 0 1 1 2 2 3 3 2 2 2 2 3 3 3 4 4 4 4 4 4 4 4 5 5 5 5 5 5 5 4 4
3 3 3 3 3 2 2 2 2 1 0 0 1 2 2 2 2 2 3 3 3 3 2 3 3 3 3 4 4 5 4 4 4 4 5 5 6 7 5 5 4 4 4
6 5 4 4 4 3 3 2 2 2 1 1 2 2 2 2 2 3 3 3 3 3 3 3 3 4 4 7 8 5 4 4 5 5 5 5 6 7 8 9 8 7 5
6 6 5 5 5 4 4 3 3 2 2 2 2 2 2 3 3 3 3 3 4 3 3 3 3 4 6 8 8 8 4 4 5 5 5 5 5 5 4 7 8 8 9
6 6 5 5 4 3 3 2 2 2 2 3 3 3 3 3 3 3 4 4 4 4 4 4 4 4 6 8 8 8 4 4 5 5 5 5 5 5 5 5 5 5 6
6 5 5 4 3 3 3 2 2 2 3 3 4 3 3 4 4 4 4 4 4 4 4 4 4 5 6 9 9 7 3 4 5 5 5 5 5 8 8 5 5 6 5
4 4 4 3 3 3 2 3 3 3 4 4 4 4 3 4 4 4 4 4 4 5 5 5 4 5 6 9 9 7 3 4 4 4 5 7 7 8 8 5 5 6 6
4 3 3 3 4 3 3 3 4 5 5 4 4 4 4 4 5 4 4 4 4 5 5 5 5 5 6 8 8 8 4 4 4 4 4 5 8 9 9 6 5 7 5
3 3 3 4 3 3 4 4 5 5 3 3 3 4 4 4 3 3 4 4 4 5 5 5 5 4 5 6 7 8 7 6 4 5 4 5 9 9 8 6 6 7 4
4 3 3 3 3 3 4 5 5 3 3 3 4 4 4 4 4 4 4 4 4 4 4 4 4 5 4 5 8 8 8 8 5 4 7 8 8 7 5 6 6 4 2
4 3 3 4 4 4 4 5 4 3 3 4 4 4 4 4 3 3 4 4 4 4 4 4 5 5 4 4 4 4 5 6 5 4 6 7 6 5 5 4 3 2 3
3 3 4 5 5 4 4 4 4 3 3 4 4 4 4 4 4 4 4 5 5 5 5 5 5 5 6 7 8 6 4 3 4 3 2 2 2 2 2 2 2 2 2
3 3 4 5 5 4 4 4 4 4 4 4 4 4 3 3 3 4 5 7 7 8 9 9 8 7 9 10 10 9 9 8 6 3 2 2 2 3 3 3 3 3 3
Wind_Direction
292 328 0 8 20 27 37 42 51 52 84 87 99 99 96 80 82 86 90 98 113 123 119 107 112 131 152 157 143 134 109 67 58 80 27 346 329 308 321 310 323 334 325
315 343 357 15 12 12 23 38 45 53 51 82 120 116 128 119 77 66 81 89 93 116 128 113 125 126 152 148 144 132 132 110 90 102 92 329 320 316 306 320 308 310 322
247 284 326 338 354 344 338 13 20 57 56 60 81 86 82 69 49 25 63 67 94 101 115 120 123 125 143 162 172 171 162 171 197 123 134 155 237 293 303 296 311 327 311
251 253 257 290 280 269 293 31 37 52 57 71 85 96 113 126 181 110 52 50 74 83 90 110 121 131 136 157 180 174 174 167 184 206 64 140 153 179 284 300 308 307 289
247 244 241 235 236 239 73 57 55 50 48 67 83 95 93 121 95 68 70 44 49 62 72 105 108 120 138 162 174 177 167 171 178 175 163 139 76 147 197 269 301 312 287
279 250 250 206 159 96 77 68 69 52 46 58 64 82 101 98 99 82 78 27 349 60 45 66 105 122 136 185 197 190 179 182 176 176 175 171 175 203 197 239 283 287 285
297 314 314 276 62 83 90 84 83 57 43 54 56 51 68 124 128 144 165 158 338 271 245 148 150 162 177 182 189 190 194 191 184 193 205 207 208 197 197 220 263 277 284
325 329 316 258 222 136 102 108 103 72 53 52 27 23 27 70 58 73 167 188 242 273 260 222 223 242 203 158 148 193 212 209 203 210 216 224 230 215 210 210 232 276 275
316 306 328 320 283 258 186 179 165 92 63 48 25 20 22 42 41 17 23 249 296 309 338 341 287 312 330 206 181 206 215 214 226 224 229 240 238 228 232 225 223 230 265
328 330 326 328 335 302 338 39 87 81 41 44 32 22 8 6 13 41 5 337 318 334 335 331 291 276 259 235 202 219 228 214 235 235 226 244 258 253 248 235 237 237 246
307 306 314 327 350 13 54 66 50 51 40 27 18 16 358 7 20 10 330 308 288 289 267 277 268 258 251 232 220 238 224 223 236 241 237 247 252 249 255 252 241 242 239
298 299 305 325 350 343 333 135 137 114 330 348 9 1 356 4 357 335 325 329 292 282 274 273 268 262 258 243 228 238 235 233 235 234 236 249 253 250 251 249 246 243 240
315 309 298 290 287 288 285 269 244 239 281 299 341 357 355 351 335 322 316 314 299 288 287 269 261 262 260 252 244 237 235 237 239 236 233 240 239 249 251 248 246 246 254
259 254 254 262 272 272 271 273 278 271 248 165 320 318 313 306 309 315 310 297 294 284 277 264 262 263 261 251 245 239 234 237 240 238 236 237 234 242 245 248 243 243 250
260 250 247 250 258 267 270 262 264 265 252 234 294 288 295 299 306 314 308 302 303 292 285 279 277 274 264 251 243 236 235 235 240 242 242 243 249 253 253 253 244 244 251
253 252 248 245 248 251 257 260 261 258 244 245 264 277 290 297 297 299 303 303 301 294 287 282 275 274 274 272 266 259 234 233 239 248 251 253 252 260 268 269 263 254 249
245 240 239 238 242 241 238 240 242 242 237 249 265 273 277 283 287 294 302 297 294 288 280 279 275 273 277 280 272 266 247 235 242 246 251 262 262 268 261 270 273 268 267
239 236 235 239 240 233 231 231 225 223 236 249 257 261 263 271 280 284 288 291 292 287 278 277 274 275 283 288 283 279 258 242 243 243 241 246 254 259 260 258 262 259 263
232 228 227 229 226 223 218 211 225 228 237 247 252 253 253 262 267 272 278 284 287 285 276 274 272 273 284 292 289 285 256 250 252 252 248 248 250 266 272 264 261 269 270
223 220 221 221 223 228 202 208 236 245 251 253 255 253 252 256 258 262 270 275 277 281 281 281 274 270 275 286 289 285 256 252 257 259 257 260 264 268 272 262 255 265 271
231 223 218 223 228 217 200 224 244 253 257 260 262 261 257 258 257 263 269 273 280 286 280 278 278 274 277 286 287 284 267 249 254 260 261 263 271 273 277 276 260 269 280
236 224 224 241 238 211 203 230 247 253 254 253 259 262 263 267 268 260 271 274 275 283 281 279 285 280 281 288 286 285 280 277 258 258 258 264 273 278 280 283 281 287 299
240 232 223 244 253 230 210 231 249 248 244 248 257 262 270 270 266 260 267 275 271 271 277 275 279 286 284 285 291 291 291 286 276 264 271 278 281 285 282 286 287 293 289
244 231 223 240 254 245 233 230 242 239 230 242 254 258 258 265 264 264 260 259 263 266 271 275 278 284 283 278 275 272 279 280 280 279 278 281 283 288 288 287 292 286 263
247 226 226 238 248 251 251 245 234 220 229 243 251 258 256 258 265 263 254 256 250 253 263 264 265 274 279 281 289 289 276 267 266 275 270 268 276 280 280 280 279 277 283
242 239 239 243 249 248 253 252 237 219 223 244 250 252 256 258 260 268 277 269 267 277 278 280 278 275 280 292 295 295 294 293 288 283 270 265 264 269 276 280 284 277 273
Height
1488 1488 1488 1488 1488 1488 1488 1489 1489 1490 1490 1491 1492 1493 1495 1496 1497 1498 1499 1501 1503 1504 1505 1506 1508 1509 1510 1511 1512 1514 1514 1515 1516 1516 1516 1517 1517 1517 1518 1518 1518 1518 1518
1486 1486 1486 1486 1486 1486 1487 1487 1488 1488 1489 1490 1491 1492 1493 1494 1495 1496 1497 1499 1500 1502 1503 1504 1505 1506 1508 1509 1510 1511 1511 1512 1513 1513 1513 1514 1515 1514 1514 1514 1514 1515 1515
1484 1484 1484 1484 1484 1485 1485 1486 1486 1487 1488 1489 1490 1491 1491 1492 1494 1494 1494 1496 1498 1499 1501 1502 1503 1504 1505 1505 1507 1508 1509 1509 1510 1511 1512 1511 1510 1510 1511 1511 1511 1511 1511
1481 1482 1482 1483 1484 1484 1485 1485 1485 1486 1486 1487 1488 1488 1489 1490 1491 1492 1492 1494 1495 1497 1498 1499 1500 1501 1502 1503 1504 1505 1505 1506 1507 1508 1508 1509 1509 1509 1507 1507 1508 1508 1507
1479 1480 1481 1482 1483 1483 1483 1484 1484 1484 1485 1485 1485 1486 1487 1488 1489 1490 1491 1492 1493 1494 1495 1496 1497 1498 1499 1500 1501 1502 1502 1503 1503 1504 1504 1505 1506 1505 1505 1503 1503 1504 1504
1478 1479 1479 1480 1481 1481 1481 1482 1482 1483 1483 1484 1484 1484 1485 1486 1487 1488 1489 1490 1491 1492 1493 1493 1494 1495 1496 1497 1498 1499 1499 1500 1500 1501 1501 1502 1502 1502 1502 1501 1499 1499 1500
1477 1477 1477 1477 1478 1478 1479 1480 1480 1481 1482 1483 1483 1483 1484 1485 1485 1486 1487 1488 1488 1489 1490 1491 1491 1492 1493 1494 1495 1495 1495 1496 1497 1497 1498 1498 1499 1499 1499 1498 1497 1496 1495
1476 1476 1476 1476 1476 1477 1477 1478 1479 1479 1480 1481 1481 1482 1482 1483 1483 1484 1485 1485 1485 1486 1487 1488 1488 1489 1490 1490 1491 1491 1492 1493 1493 1494 1495 1495 1495 1495 1495 1495 1494 1492 1492
1475 1475 1475 1476 1476 1476 1476 1477 1477 1478 1478 1479 1479 1479 1480 1480 1481 1482 1482 1482 1482 1483 1484 1485 1486 1486 1486 1487 1487 1488 1488 1489 1490 1490 1491 1491 1491 1492 1492 1492 1491 1491 1489
1474 1474 1474 1475 1475 1475 1475 1475 1475 1476 1476 1476 1477 1477 1478 1478 1479 1480 1480 1480 1480 1481 1481 1482 1482 1483 1483 1483 1484 1484 1485 1485 1486 1486 1487 1487 1487 1487 1487 1487 1487 1487 1486
1473 1473 1473 1474 1474 1474 1474 1474 1474 1475 1475 1475 1475 1475 1475 1476 1476 1477 1477 1477 1478 1478 1478 1479 1479 1479 1480 1480 1480 1480 1481 1482 1482 1482 1482 1482 1483 1482 1483 1483 1483 1482 1482
1472 1472 1472 1473 1473 1473 1473 1473 1473 1473 1473 1473 1473 1473 1473 1473 1473 1474 1474 1474 1475 1475 1475 1475 1475 1476 1476 1476 1476 1477 1477 1477 1478 1478 1478 1478 1478 1478 1478 1478 1478 1478 1477
1471 1471 1471 1471 1471 1471 1471 1471 1471 1471 1471 1471 1471 1471 1471 1471 1471 1471 1471 1471 1471 1471 1471 1471 1471 1472 1472 1472 1472 1472 1472 1473 1473 1473 1473 1473 1473 1473 1473 1472 1472 1472 1472
1469 1469 1469 1469 1469 1469 1469 1469 1469 1469 1469 1469 1468 1468 1468 1468 1468 1467 1467 1467 1467 1467 1467 1467 1467 1467 1467 1467 1467 1467 1467 1468 1468 1468 1468 1468 1468 1468 1468 1467 1467 1467 1467
1466 1466 1466 1466 1466 1466 1466 1466 1466 1466 1466 1466 1465 1465 1465 1465 1464 1464 1464 1463 1463 1463 1463 1463 1462 1462 1462 1462 1462 1462 1462 1462 1462 1463 1463 1463 1463 1463 1463 1462 1462 1462 1462
1463 1463 1463 1463 1463 1463 1463 1463 1463 1463 1463 1463 1463 1463 1462 1462 1461 1461 1460 1459 1459 1459 1459 1458 1458 1457 1457 1457 1457 1457 1457 1457 1457 1457 1458 1458 1458 1457 1457 1457 1457 1457 1457
1459 1459 1459 1460 1460 1460 1461 1461 1461 1460 1460 1460 1460 1459 1459 1458 1458 1457 1457 1456 1455 1455 1454 1454 1453 1452 1452 1452 1452 1452 1452 1452 1452 1452 1452 1452 1452 1452 1452 1452 1452 1452 1452
1454 1455 1456 1456 1457 1457 1457 1457 1457 1457 1457 1457 1456 1456 1455 1454 1454 1453 1452 1452 1451 1450 1449 1449 1448 1448 1448 1447 1447 1447 1447 1447 1447 1447 1447 1447 1446 1446 1446 1446 1446 1446 1446
1451 1452 1452 1453 1453 1453 1454 1454 1454 1454 1453 1453 1452 1452 1451 1450 1450 1449 1448 1447 1446 1446 1445 1444 1443 1443 1443 1443 1442 1442 1442 1442 1442 1442 1442 1442 1441 1441 1441 1441 1440 1439 1439
1448 1448 1449 1449 1449 1450 1450 1450 1450 1449 1449 1449 1448 1448 1447 1446 1445 1445 1444 1443 1442 1441 1440 1440 1439 1438 1438 1438 1438 1438 1437 1436 1436 1436 1437 1437 1437 1437 1436 1436 1435 1434 1433
1445 1445 1445 1445 1445 1446 1446 1445 1445 1445 1445 1444 1444 1443 1442 1442 1441 1440 1440 1439 1438 1437 1436 1435 1435 1434 1433 1433 1433 1433 1432 1432 1431 1431 1431 1431 1432 1431 1431 1431 1430 1429 1429
1441 1441 1441 1441 1441 1441 1441 1441 1441 1441 1440 1440 1439 1439 1438 1437 1437 1436 1435 1435 1434 1433 1432 1431 1430 1430 1429 1429 1428 1428 1428 1427 1427 1426 1426 1426 1426 1426 1426 1425 1425 1424 1424
1436 1437 1436 1436 1437 1437 1437 1437 1437 1437 1436 1436 1435 1435 1434 1434 1433 1432 1431 1430 1429 1428 1427 1426 1426 1425 1425 1424 1424 1424 1423 1423 1422 1422 1421 1421 1421 1421 1421 1420 1420 1419 1418
1432 1432 1432 1432 1432 1433 1433 1433 1432 1432 1432 1431 1431 1430 1430 1429 1429 1428 1427 1426 1425 1424 1423 1422 1422 1421 1420 1420 1420 1419 1419 1418 1418 1417 1417 1417 1416 1416 1415 1415 1415 1414 1414
1428 1428 1428 1428 1428 1428 1428 1428 1428 1428 1427 1427 1427 1426 1425 1425 1424 1423 1423 1422 1421 1420 1419 1418 1418 1417 1416 1416 1416 1415 1415 1414 1414 1413 1412 1412 1411 1411 1410 1410 1410 1409 1409
1424 1424 1424 1424 1424 1424 1424 1424 1424 1424 1423 1423 1422 1422 1421 1420 1420 1419 1418 1417 1417 1416 1416 1415 1414 1413 1413 1412 1411 1411 1410 1410 1409 1409 1407 1407 1406 1406 1406 1405 1405 1405 1404